User: anonymous   Login
Location: College Park
(38.9810°N, 76.9370°W)
Time: 12:10:23
(UTC-04:00)
Language:

Tiangong 2 - Orbit

View from above orbital plane
View from above orbital plane
View from above satellite
View from above satellite

Ground track
Ground track

The orbit data is extracted from the following two-line orbital elements,

1 41765U 16057A   18115.57891006  .00005587  00000-0  68918-4 0  9995
2 41765  42.7843 296.5842 0004887 263.2467 156.6413 15.61069786 91764
Epoch (UTC): 25 April 2018 13:53:37
Eccentricity: 0.0004887
inclination: 42.7843°
perigee height: 381 km
apogee height: 388 km
right ascension of ascending node: 296.5842°
argument of perigee: 263.2467°
revolutions per day: 15.61069786
mean anomaly at epoch: 156.6413°
orbit number at epoch: 9176

The dashed part of the orbit path shows where the satellite is in the earth's shadow,  

DLR